Zurück zum Katalog

ECHOSTAR 17

AktivKommunikationGEO
NORAD 38551·PAYLOAD·🇺🇸 United States

Gestartet Jul 5, 2012 von Guiana Space Centre

Loading…

TLE

AktuellSource: Space-Track

Epoche: Sep 14, 2026, 12:29 UTC

1 38551U 12035A   26257.52058617 -.00000083  00000-0  00000-0 0  9991
2 38551   0.0196 141.9240 0002122  28.3745 263.5108  1.00271952 51959

Verfolge ECHOSTAR 17 in Echtzeit mit AllMySat

Download on the App Store